User: anonymous   Login
Location: Ostrava
(49.8330°N, 18.2830°E)
Time: 15:42:02
(UTC+01:00)
Language:

Cosmos 2221 - Orbit

View from above orbital plane
View from above orbital plane
View from above satellite
View from above satellite

Ground track
Ground track

The orbit data is extracted from the following two-line orbital elements,

1 22236U 92080A   16044.82782066  .00000961  00000-0  10364-3 0  9991
2 22236  82.5108 161.2727 0017024 178.2408 181.8873 14.87281869254574
Epoch (UTC): 13 February 2016 19:52:03
Eccentricity: 0.0017024
inclination: 82.5108°
perigee height: 594 km
apogee height: 618 km
right ascension of ascending node: 161.2727°
argument of perigee: 178.2408°
revolutions per day: 14.87281869
mean anomaly at epoch: 181.8873°
orbit number at epoch: 25457

The dashed part of the orbit path shows where the satellite is in the earth's shadow,  

DLR